Airfield :
LOGIN :

Register | Disclaimer

   EN    FR    IT 

 










Legend :    VFR   Marginal VFR   IFR   Intensive IFR   Very Intensive IFR
Visi :
Ceiling :
>= 8 km
>= 3000ft
5 to 8 km
1000 to 3000 ft
1500m to 5 km
500 to 1000 ft
800 to 1500m
200 to 500 ft
< 800m
< 200 ft
Symbols :   Thunderstorms  Fog  Heavy snow  Heavy precipitations  Wind > 20 kt
SIGMETs :     Misc.  Thunderstorms  Icing  Turbulence  Mountain Waves  Volcanic Ashes







- Airport Elevation : 245 ft


ETHS - Fassberg

CURRENT METAR :
  • 242142Z 30005KT 9999 BKN012 12/11 Q1020 GRN

EXPIRED METARs :
  • 242120Z 31007KT 9999 FEW010 BKN015 BKN025 12/11 Q1020 WHT
  • 242020Z 30006KT 9999 SCT010 BKN028 12/11 Q1020 BLU
  • 241950Z 31008KT 9999 SCT010 BKN030 13/11 Q1019 BLU
  • 241920Z 31007KT 8000 -DZ SCT010 BKN020 13/11 Q1019 WHT

Expired Forecast.
No reported NOTAMs for that airfield.



MET'MAP, your aeronautical weather chart ! - Copyright ORBIFLY December 2007 - Disclaimer

ORBIFLY MET'MAP TEAM :

Programming & Development : Alexandra Zaïnal
Concept & Development : Baudouin d'Aumeries
Co-Development & Prog : Marc-Olivier Méhu
Technical & hardware support : Manuel Goepfert

Contact : metmap@orbifly.com




SOURCES & CREDITS :

   NOAA